Wind_Speed
12 12 12 11 11 10 10 10 10 10 11 11 10 10 11 11 11 12 12 13 13 13 14 14 14 14 15 15 15 16 16 17 18 18 19 19 19 20 21 21 22 22 22 23 24 24 25 25 25 26 26 27 27 27 30 29 27 30 30 30 31 31 29 29 26 25 27 23 17 22 32 38 38 42 43 37 32 33 33 35 34 32 36 37 32 34 41 40
12 12 11 11 11 10 10 10 10 11 11 11 11 11 11 11 12 12 12 13 13 13 13 13 14 14 15 16 16 17 18 19 19 20 20 20 21 22 22 23 24 24 24 25 25 26 26 26 26 26 27 27 27 28 31 29 28 30 30 31 32 31 30 27 26 27 31 32 29 27 33 41 40 39 39 33 32 36 38 37 34 34 35 36 35 37 43 42
12 12 11 11 11 11 11 10 11 11 11 11 11 11 11 11 11 11 12 12 12 13 14 14 15 16 17 18 18 19 20 20 20 21 21 22 23 23 24 24 25 25 26 26 26 27 27 27 27 27 28 28 28 29 29 29 30 29 30 33 30 30 31 26 30 38 40 40 39 38 40 42 39 37 36 33 34 37 41 41 34 33 35 36 38 40 42 41
13 12 11 11 11 11 10 11 11 11 12 12 12 12 12 12 12 12 13 13 14 15 16 17 17 18 19 20 20 21 21 22 22 22 22 23 24 24 25 25 25 26 26 27 27 27 27 27 27 27 28 28 29 30 27 30 33 30 30 33 27 29 33 29 36 45 43 42 42 42 43 42 40 37 36 36 35 37 40 40 36 34 36 38 40 40 37 37
13 12 12 12 12 12 11 11 12 12 13 13 13 14 14 14 14 15 15 16 17 18 18 19 19 20 21 21 22 22 23 23 23 23 23 24 25 25 26 25 26 26 26 26 26 27 27 27 28 27 27 27 29 30 26 30 35 30 29 31 25 28 36 35 40 45 41 39 38 38 37 36 37 36 37 38 36 37 38 37 38 37 33 36 39 38 35 40
14 13 12 13 13 13 12 12 13 13 14 15 15 16 16 17 17 17 18 18 19 19 20 20 21 21 22 22 22 23 23 23 24 23 24 24 24 25 25 25 25 25 25 26 26 27 26 27 27 27 27 26 27 29 26 32 35 29 26 28 26 30 38 38 39 42 39 36 34 35 36 36 38 39 38 37 35 36 36 36 39 40 38 40 42 40 41 47
14 14 13 14 14 14 14 14 14 15 16 17 17 17 18 18 18 19 19 20 20 20 21 21 21 22 22 23 23 23 23 23 23 23 23 24 24 24 24 24 24 24 25 25 26 26 26 26 26 26 25 23 25 28 28 33 32 26 26 28 30 34 38 37 37 40 40 37 34 35 38 39 40 41 38 37 36 37 37 37 38 40 38 39 40 39 42 47
15 15 14 15 15 16 16 16 17 17 18 18 19 19 19 20 20 20 20 20 21 21 21 21 22 22 22 23 23 23 22 22 23 23 23 23 23 23 23 24 24 24 25 25 25 25 25 25 25 25 23 22 27 28 29 31 27 26 29 29 32 38 40 37 36 39 40 40 39 38 38 40 41 41 39 38 37 39 42 38 35 36 35 38 41 40 41 44
17 16 15 15 16 17 17 18 18 18 19 20 20 21 20 20 20 20 20 20 20 21 21 21 20 21 21 21 21 21 21 21 22 22 23 23 23 23 24 24 24 25 25 24 24 24 24 23 23 23 22 24 27 26 27 29 27 30 32 31 35 40 40 38 37 39 40 42 42 41 41 40 41 42 41 40 39 41 41 37 36 37 38 42 44 43 42 42
18 17 16 16 16 17 18 18 19 19 20 20 21 21 20 19 18 18 19 19 18 18 18 17 18 18 19 20 20 20 20 21 22 22 23 23 24 24 24 24 24 24 23 23 22 22 22 21 21 22 22 25 26 25 28 29 30 32 33 34 37 38 38 39 39 38 39 41 41 42 43 41 41 42 40 37 36 39 40 40 42 41 41 44 44 43 42 41
18 18 18 17 17 17 18 19 20 20 21 21 22 21 20 18 17 17 17 16 16 15 15 16 17 18 19 19 20 21 21 22 22 23 23 23 24 23 24 23 23 22 22 21 20 20 21 20 21 21 23 24 25 27 29 30 30 31 32 32 33 32 32 32 32 34 35 35 37 40 41 40 39 37 37 31 27 37 41 42 45 43 43 45 44 42 41 40
18 19 19 19 19 19 20 20 21 21 22 22 22 22 21 19 18 17 16 15 15 15 16 17 18 19 19 20 21 22 22 23 23 23 23 23 23 23 23 21 21 20 19 19 19 19 19 20 20 22 24 24 24 26 26 26 26 26 25 24 24 22 21 21 23 25 27 28 30 32 31 29 28 27 28 21 20 37 45 43 45 43 42 43 42 41 41 41
19 20 20 21 22 22 22 22 23 23 23 23 23 23 22 20 19 17 16 16 16 17 17 19 20 20 21 22 22 23 23 23 24 24 23 23 23 22 21 19 18 18 18 17 17 18 18 19 20 21 22 21 21 22 20 19 18 17 16 15 14 11 14 16 16 13 16 23 21 21 18 11 15 17 13 11 23 40 46 42 38 37 40 42 42 43 41 41
20 21 22 22 23 23 24 24 24 24 25 25 25 24 22 21 19 18 17 17 18 19 20 21 22 22 23 23 23 23 24 24 24 24 23 23 22 20 19 17 16 15 16 16 16 17 18 19 19 19 17 16 15 14 13 12 11 11 8 8 6 9 10 14 14 12 13 16 12 11 7 4 7 9 7 13 24 32 33 33 31 32 38 41 42 42 41 41
22 22 23 23 24 24 25 25 25 26 26 25 24 23 22 20 19 19 19 19 20 21 23 23 24 25 25 23 23 24 24 23 23 22 22 21 20 18 16 14 14 13 14 15 16 16 17 16 15 13 10 9 8 7 8 7 7 7 2 4 7 3 8 16 15 15 14 12 8 6 5 6 0 9 12 16 20 19 21 25 28 30 34 37 39 39 39 41
22 23 24 24 25 25 25 25 25 26 26 24 23 22 20 19 19 19 20 21 22 24 25 26 25 27 27 25 23 23 22 22 21 21 20 19 18 15 13 11 11 12 13 14 14 13 12 11 9 7 5 5 5 5 7 5 6 7 3 3 3 5 6 12 14 15 14 13 9 8 10 5 2 6 10 14 10 11 18 20 22 24 27 31 34 36 37 40
23 24 24 25 26 26 26 25 24 25 25 23 22 21 19 19 19 20 21 22 24 25 26 27 27 27 28 26 25 23 21 20 19 19 18 16 14 12 10 9 10 11 13 12 11 9 7 6 5 4 4 4 5 4 4 5 5 6 5 6 5 6 6 6 13 15 11 8 8 12 12 7 4 6 7 10 6 8 11 14 17 21 25 28 31 32 33 36
23 24 24 25 25 26 25 24 24 24 23 22 21 20 20 20 20 21 22 23 25 26 27 27 28 29 26 25 26 25 22 19 17 17 15 13 11 9 8 9 10 11 11 9 7 5 4 4 4 4 4 4 5 4 4 6 8 7 8 8 6 6 8 4 9 14 9 5 7 11 12 12 11 12 7 11 10 8 8 13 15 18 21 24 27 28 30 34
24 24 24 24 25 25 24 24 23 23 23 22 21 21 21 21 22 23 24 25 26 27 28 27 27 28 26 24 24 23 21 18 16 15 12 10 9 8 7 8 9 9 8 5 3 4 4 3 4 4 3 2 4 6 7 7 7 8 9 9 8 6 5 4 10 19 14 6 8 8 10 13 13 14 10 8 15 15 13 14 15 18 19 20 22 24 27 28
24 24 24 24 24 23 23 23 23 23 23 23 23 23 23 24 24 24 25 26 27 28 29 28 26 26 25 23 21 20 19 16 13 12 10 8 8 7 6 6 6 4 5 5 4 4 4 5 4 3 2 3 5 7 8 9 9 11 10 9 10 8 9 11 12 16 17 10 12 12 13 14 13 15 16 18 22 21 18 17 18 20 21 21 23 24 27 28
24 24 24 24 22 22 22 23 24 24 24 24 24 25 26 27 28 27 27 27 28 29 28 27 26 24 21 20 19 18 17 14 10 10 9 7 7 7 6 6 4 2 3 4 4 5 5 6 4 3 3 5 6 6 6 8 10 12 12 12 12 11 13 14 11 14 18 15 14 15 15 15 14 15 16 17 19 18 19 20 21 23 25 26 26 26 27 28
24 24 24 22 21 22 23 24 25 25 25 26 27 28 28 29 29 29 30 30 29 28 26 25 23 20 17 17 17 15 15 14 8 6 7 6 6 7 7 6 4 3 4 5 5 5 6 6 5 3 4 6 7 7 6 6 7 9 11 11 12 13 15 16 14 15 17 16 15 15 15 14 15 17 16 16 17 18 21 22 22 24 25 26 26 25 23 25
24 24 23 21 21 23 24 24 25 25 26 28 29 29 29 29 29 30 31 30 28 26 24 21 19 18 16 14 13 12 13 13 8 4 5 6 6 6 7 6 4 5 5 7 7 7 6 5 6 4 5 6 7 7 6 6 6 6 8 11 11 12 14 15 14 15 16 16 16 16 15 16 18 18 16 15 18 23 26 25 24 25 24 25 25 25 24 25
24 23 21 21 23 24 24 24 25 26 28 29 28 28 29 29 30 30 29 29 28 24 20 18 18 17 15 13 12 11 9 9 8 4 4 6 6 7 7 5 4 6 7 7 9 8 6 6 7 6 6 7 6 6 5 5 6 7 8 10 9 10 14 15 16 17 17 18 19 18 17 20 21 19 19 22 22 23 24 25 24 24 25 25 26 26 27 27
23 22 21 22 24 24 24 26 27 29 29 28 28 29 29 29 28 27 27 27 25 21 19 18 17 15 14 13 13 10 7 7 7 4 4 6 6 7 7 4 3 7 9 9 11 11 8 7 7 7 6 6 6 5 4 4 5 6 8 8 8 10 12 13 15 15 16 17 19 19 17 16 15 14 16 19 19 20 20 20 21 22 24 25 25 25 25 27
23 22 22 23 24 23 25 27 29 29 28 28 29 29 29 28 26 26 25 23 20 19 20 19 16 15 14 13 11 9 6 5 6 4 4 5 5 7 6 5 5 8 10 10 12 13 9 8 7 7 7 5 5 5 3 4 5 6 9 11 10 10 9 10 12 12 14 14 15 17 14 8 8 9 11 13 16 20 20 19 19 20 22 23 23 23 24 25
23 22 23 24 24 24 26 28 29 28 28 29 29 28 27 27 26 25 22 20 17 17 17 17 16 16 15 13 10 8 6 5 4 3 3 4 5 7 7 7 6 8 10 10 12 13 10 9 8 8 7 5 4 4 3 4 6 7 9 12 14 12 9 9 10 10 11 10 9 8 5 5 7 9 11 15 20 23 23 22 21 22 23 24 24 24 25 25
22 22 23 24 24 25 28 29 28 28 29 30 28 27 27 26 25 23 21 20 18 15 15 16 17 16 16 13 8 6 6 4 3 3 4 5 6 7 8 9 8 8 10 10 12 11 11 10 8 7 7 6 4 4 3 5 7 9 10 12 14 12 8 8 9 7 6 7 6 1 1 9 12 12 13 15 19 21 22 24 25 26 27 27 27 27 28 29
22 22 23 23 24 27 29 29 29 29 30 29 27 26 26 25 23 21 20 19 17 16 16 16 16 16 16 13 7 4 4 3 4 5 6 6 7 7 8 9 8 8 10 11 11 10 10 9 8 8 7 6 4 3 4 5 7 9 11 11 10 8 5 6 7 5 5 4 3 1 5 12 13 14 15 15 17 20 22 25 26 27 27 27 27 29 31 33
22 22 22 23 25 27 28 28 29 30 29 27 26 25 24 23 21 19 19 19 17 16 16 15 16 16 15 13 6 2 2 2 5 6 6 7 7 6 6 7 6 7 9 10 11 10 9 9 9 9 8 6 5 5 6 6 7 9 10 10 11 11 6 5 7 5 3 3 2 3 7 12 13 16 17 16 17 19 21 23 24 25 26 26 27 28 29 31
21 21 22 23 25 27 28 27 28 29 28 26 25 23 22 21 20 18 18 18 17 16 16 15 15 15 13 9 5 3 3 3 5 7 7 8 8 7 5 3 2 5 9 10 11 12 11 10 9 9 8 7 6 7 8 7 7 8 9 9 11 13 7 4 7 5 2 3 5 8 9 10 12 14 16 17 17 17 19 20 21 24 25 25 26 25 26 27
20 21 22 23 25 27 28 28 29 29 26 24 23 22 21 20 19 17 16 16 16 16 16 14 13 12 9 5 4 3 4 5 6 8 8 8 7 7 5 2 3 5 9 10 10 12 12 10 8 8 7 8 7 7 6 6 7 8 9 8 10 10 7 6 8 7 5 5 8 10 11 11 12 13 15 16 17 17 18 20 23 26 27 26 26 24 23 23
19 20 21 23 25 26 27 28 29 28 25 23 22 21 20 20 19 17 15 15 14 14 14 13 12 10 6 5 4 4 5 6 7 7 8 8 7 6 5 4 5 6 8 10 11 10 9 9 9 8 7 8 8 8 8 7 8 9 9 9 9 9 8 7 7 8 9 10 11 10 11 13 13 13 15 16 17 17 19 23 26 27 28 27 27 26 24 22
19 19 21 22 24 26 26 28 28 26 23 22 20 19 20 19 17 15 14 13 13 13 13 12 10 7 5 4 4 5 7 7 8 7 7 8 7 6 5 4 5 7 8 8 10 10 5 5 8 8 8 9 9 9 10 10 10 10 10 10 9 8 8 8 8 9 10 12 13 11 11 13 12 13 15 16 16 17 20 24 26 26 28 27 26 26 26 25
19 19 20 22 24 25 26 27 27 25 22 20 19 18 19 18 16 14 13 12 11 12 12 10 7 5 4 4 4 5 7 7 8 8 8 8 8 7 5 5 5 9 11 9 8 9 6 5 6 7 7 8 9 10 10 11 11 9 10 11 9 8 9 10 10 11 11 12 13 12 13 13 13 15 17 17 17 18 21 24 25 25 27 28 28 28 28 27
19 19 20 21 23 24 25 26 26 23 21 19 18 18 17 17 16 13 12 11 11 10 9 8 6 4 3 4 4 5 6 7 7 7 8 8 7 6 6 5 6 8 12 12 10 9 9 7 6 7 7 8 9 9 9 10 10 9 9 10 9 9 9 9 10 10 11 11 11 14 15 13 13 16 18 19 18 19 21 24 25 25 26 28 29 30 29 29
19 19 19 20 22 23 24 25 24 21 19 18 17 16 16 15 15 13 11 10 10 8 7 6 5 4 4 3 4 5 6 7 7 6 7 8 7 6 6 5 6 8 11 13 12 10 10 9 8 8 8 8 9 10 9 9 9 8 8 8 8 9 8 8 8 9 10 10 10 13 14 12 14 17 20 21 20 20 22 24 25 25 25 26 27 28 28 28
19 18 19 20 21 23 23 24 24 21 18 17 16 15 15 14 14 13 11 10 9 7 6 6 5 4 4 4 5 6 6 7 8 8 8 8 8 7 7 7 6 7 9 13 13 12 12 11 10 10 10 9 9 10 9 8 7 7 7 8 8 8 8 8 8 9 10 9 9 11 13 16 18 20 22 24 22 22 23 24 25 26 26 25 26 26 25 26
18 18 18 19 20 21 22 24 24 21 18 18 16 14 14 13 13 12 11 9 8 7 6 5 4 3 3 4 5 6 7 8 9 9 9 9 8 8 7 7 6 6 6 9 12 12 12 12 11 10 10 10 10 11 10 7 7 8 8 9 9 8 9 9 8 9 10 10 10 11 15 21 23 22 24 26 25 25 24 24 25 26 26 26 26 27 26 26
19 17 17 18 19 20 22 23 23 21 18 18 16 13 13 13 12 11 10 9 8 7 6 5 4 3 3 3 5 6 7 8 9 9 9 9 8 8 8 7 6 6 5 6 9 11 12 12 11 11 10 11 10 10 10 9 10 11 12 12 11 10 10 10 10 10 10 11 13 14 18 23 24 22 25 29 28 26 25 27 25 24 25 25 26 27 28 27
19 17 17 17 18 20 21 22 22 20 17 17 16 13 12 12 11 10 8 8 8 7 6 5 4 4 3 3 5 6 7 7 8 9 9 9 8 7 7 7 6 5 4 4 6 8 10 10 11 11 11 11 10 10 11 12 13 14 14 14 12 11 11 11 12 13 12 13 16 18 22 25 25 25 28 30 28 27 28 31 29 24 25 26 25 27 28 28
19 18 17 17 18 20 21 20 20 19 16 16 15 13 11 11 11 10 8 7 7 7 6 6 5 4 4 4 4 6 7 7 8 9 9 9 9 8 7 6 6 5 4 4 4 7 9 9 10 11 11 10 9 11 13 14 14 14 14 13 13 13 14 14 14 16 16 16 18 20 23 26 26 27 31 30 28 28 30 33 32 27 26 27 27 27 28 28
19 18 18 18 18 19 21 21 19 18 16 15 14 12 11 11 11 10 9 7 7 7 6 5 5 5 5 5 5 5 6 7 8 9 9 8 9 9 7 6 6 6 5 4 4 6 6 7 8 9 11 11 11 14 15 14 14 14 12 13 14 16 17 18 18 18 18 17 18 18 21 26 26 27 31 30 28 31 32 33 34 31 28 28 28 27 28 28
19 17 17 18 18 18 19 21 20 18 16 15 13 12 11 11 11 10 9 8 7 7 7 6 6 6 6 6 6 6 6 7 8 9 9 8 8 9 8 7 6 6 5 4 4 4 5 6 7 8 10 11 13 14 14 14 14 13 14 16 17 17 18 19 19 18 17 17 17 18 20 25 27 28 30 30 29 32 33 32 32 32 30 28 27 27 28 28
19 18 15 15 17 17 17 19 20 18 16 14 13 11 10 10 11 10 9 8 8 7 7 7 7 7 7 7 7 7 6 6 7 8 9 9 9 8 8 7 7 6 6 5 4 4 4 5 6 7 9 11 13 14 14 16 17 17 18 19 18 17 18 18 17 17 16 17 18 19 19 22 25 27 28 30 30 31 32 31 30 30 30 27 26 27 27 28
19 19 17 15 15 15 16 17 19 18 15 14 13 11 10 9 10 10 9 8 7 7 7 7 7 7 7 7 8 8 7 6 7 8 8 9 9 8 8 7 7 7 7 6 5 5 4 3 5 6 7 10 13 14 15 16 17 17 18 17 17 17 18 18 17 16 16 17 18 20 20 21 24 26 27 29 29 29 29 28 27 27 27 27 26 25 25 26
20 19 19 18 17 16 14 15 17 17 15 13 12 12 10 9 9 9 9 8 7 7 7 7 7 7 7 7 7 8 7 7 7 8 8 9 9 8 7 7 6 6 7 7 6 6 5 3 4 6 7 9 11 13 15 14 14 15 16 16 17 17 17 17 16 16 16 17 18 21 22 23 25 27 26 26 26 27 27 26 25 25 24 23 23 22 22 24
21 20 19 19 18 17 16 15 16 17 15 13 12 11 10 9 9 9 9 8 7 7 7 7 7 7 7 7 7 8 8 7 7 8 9 9 10 9 7 7 6 6 7 7 6 6 6 5 5 6 8 9 10 12 13 13 13 15 15 16 16 16 15 15 15 16 17 17 18 20 22 24 26 26 24 24 24 26 26 24 24 23 21 19 20 21 21 23
22 21 20 20 18 17 17 16 16 16 16 14 12 11 10 9 8 8 8 8 7 7 7 7 7 7 8 7 7 7 7 7 8 8 9 10 10 10 8 6 6 6 6 7 7 7 7 7 8 8 8 9 10 11 12 13 13 14 15 15 15 15 15 15 16 16 17 17 18 20 21 24 25 24 23 23 24 24 23 22 21 20 18 18 19 19 19 21
23 22 21 21 19 17 17 17 17 16 15 14 13 12 10 9 8 8 8 8 8 7 7 7 8 8 8 7 7 6 6 7 8 8 9 9 10 10 8 6 6 6 6 6 7 7 8 8 9 9 9 9 10 11 12 12 13 15 15 14 13 15 17 17 16 16 16 17 20 21 21 23 24 23 22 22 22 21 21 20 19 18 18 18 19 18 18 20
25 23 22 22 20 18 17 16 17 17 15 13 13 12 11 9 8 7 8 8 8 7 7 8 8 8 8 7 6 6 6 7 8 9 9 9 10 10 9 7 6 6 6 7 7 8 8 9 10 10 9 9 10 11 11 12 13 15 15 14 14 16 17 16 16 17 17 18 20 21 21 22 22 22 21 22 21 20 20 20 18 17 19 20 19 19 19 19
25 25 24 23 21 19 18 16 16 17 16 13 12 12 11 10 9 8 8 8 8 7 8 8 9 9 8 6 6 6 7 7 8 8 9 9 9 9 8 8 7 7 7 7 8 9 9 9 10 10 10 10 11 12 12 13 13 14 14 15 15 15 15 15 15 17 18 18 19 20 20 21 21 21 20 21 22 21 20 20 18 17 19 21 20 20 20 19
Wind_Direction
343 345 344 341 337 331 324 318 312 307 303 302 299 295 293 290 289 287 287 287 287 287 286 285 284 283 283 281 281 280 279 278 278 276 276 276 275 275 273 272 271 270 269 268 267 265 265 264 263 262 261 260 260 260 260 259 260 260 260 261 262 261 260 260 260 261 258 245 226 240 247 243 238 242 251 258 262 261 255 250 250 248 251 256 253 257 264 263
338 341 344 344 341 339 336 331 324 317 312 309 305 301 297 293 291 289 289 289 288 287 285 286 285 285 285 284 283 282 281 281 280 279 278 278 277 275 274 273 272 270 269 267 266 265 264 264 263 262 261 261 261 260 261 261 260 260 260 260 260 260 259 258 256 248 245 241 225 225 243 247 245 250 258 265 265 263 260 251 248 250 252 257 255 255 262 265
336 335 337 337 337 339 340 337 332 327 322 317 314 311 305 301 298 296 294 291 289 288 287 287 286 287 286 285 285 283 283 283 281 280 280 279 277 275 274 272 271 269 267 266 265 264 264 264 264 263 263 263 262 262 263 264 260 259 259 259 259 259 257 249 247 246 243 244 237 232 247 260 261 263 266 267 262 259 260 257 253 254 251 250 250 250 255 263
339 334 331 328 328 332 333 332 329 325 321 317 316 312 308 304 301 298 295 293 290 289 288 287 287 286 286 285 284 284 284 283 281 280 281 279 278 277 275 274 272 270 268 267 266 265 265 265 265 265 266 266 265 264 265 264 262 258 257 258 257 254 254 243 243 250 249 250 250 250 259 269 270 268 264 260 256 255 257 259 257 254 251 249 248 249 252 255
342 337 333 327 325 326 325 323 320 317 313 310 309 305 302 300 297 295 292 291 289 288 287 287 286 285 284 284 283 283 283 283 283 283 282 280 280 279 278 276 274 273 270 268 267 266 266 266 267 267 267 267 267 266 264 262 261 259 259 261 255 249 253 246 246 256 259 259 261 263 266 267 266 263 259 257 255 253 253 255 256 251 246 248 248 244 244 246
345 340 336 331 328 325 324 321 318 313 309 307 304 301 298 296 293 292 290 289 288 288 287 287 287 286 285 285 284 285 285 285 285 285 284 283 282 280 279 278 275 274 271 270 269 267 268 268 268 268 267 267 267 267 262 259 261 264 263 261 253 247 254 255 256 263 264 264 264 263 262 259 259 258 257 258 256 254 252 251 253 251 244 246 249 245 244 248
347 343 339 335 331 328 326 325 321 318 314 311 307 303 299 296 294 293 291 291 290 290 290 290 289 289 288 288 287 287 288 287 287 287 285 284 283 282 281 278 276 275 273 272 271 270 270 269 268 268 268 265 263 262 259 261 266 267 262 260 258 255 258 260 261 265 267 265 261 257 258 257 257 257 257 256 254 253 250 247 249 252 252 253 255 254 252 255
348 344 340 337 333 330 328 327 324 322 319 316 312 308 303 299 296 295 294 293 293 293 292 292 291 291 291 290 290 290 290 290 289 289 287 286 285 283 281 279 278 277 276 274 273 272 270 270 270 268 266 260 259 261 262 267 270 266 262 259 260 262 263 264 261 262 265 265 262 257 256 257 257 258 256 254 253 252 251 248 247 249 252 252 250 249 250 253
348 344 341 337 334 331 328 326 324 322 320 319 316 313 307 301 298 296 296 296 296 295 294 294 293 293 293 292 293 293 293 292 290 289 288 287 285 284 282 281 281 279 278 277 275 274 272 271 269 267 265 260 262 267 268 271 269 265 264 260 261 266 268 268 264 261 262 262 263 260 257 257 257 257 256 254 252 252 253 251 246 245 247 248 248 247 247 249
344 342 339 336 333 330 327 325 323 320 319 318 318 316 312 306 302 299 299 299 300 299 298 298 297 297 296 295 295 294 294 293 291 290 288 287 285 284 283 282 282 281 280 278 277 274 272 270 267 265 264 263 267 269 268 270 268 268 268 266 265 268 269 269 267 266 265 264 263 263 262 260 259 259 258 257 255 252 251 250 247 244 244 246 248 248 248 248
339 338 337 334 331 328 326 324 322 320 319 318 318 317 314 309 305 302 302 303 303 303 303 302 301 300 299 299 298 297 297 295 293 292 290 288 287 285 284 283 282 281 279 277 275 272 270 268 267 267 265 268 271 269 271 270 270 272 271 269 271 271 272 271 272 272 270 268 266 265 265 265 265 264 263 259 254 253 249 248 249 246 244 247 249 251 251 250
333 333 333 332 329 328 327 325 323 321 320 319 318 316 313 309 306 303 303 304 305 305 305 305 304 303 303 302 300 300 299 297 296 295 293 292 290 289 287 285 284 281 278 275 272 271 270 270 270 270 269 271 271 270 272 271 271 272 271 275 276 275 279 276 273 272 272 271 269 270 271 273 273 269 269 259 241 252 253 249 251 250 248 250 251 251 250 250
329 329 330 330 329 329 328 326 326 324 323 321 319 316 312 308 305 303 304 305 306 306 307 307 306 306 305 303 301 300 299 298 297 296 296 294 292 291 289 287 284 281 278 275 274 274 273 274 273 271 272 271 269 270 272 272 274 273 275 278 275 292 303 289 282 284 285 276 271 276 275 282 293 285 278 239 233 251 256 254 254 254 252 251 250 250 249 249
327 327 328 329 329 328 328 328 327 326 324 322 320 317 313 309 306 303 304 306 307 308 308 308 307 306 304 302 301 300 300 299 298 298 297 296 294 292 290 287 284 281 280 278 279 279 278 277 275 273 273 270 270 270 273 274 271 273 282 285 318 8 320 282 288 307 305 290 281 270 260 52 331 278 195 213 251 262 260 258 255 252 252 251 249 249 248 248
326 327 328 328 328 328 329 329 328 327 326 324 322 320 316 312 308 305 305 307 308 309 309 308 307 305 302 302 302 301 300 299 300 299 298 296 294 293 290 286 283 280 280 280 281 282 281 280 277 276 270 268 272 269 277 287 282 290 17 348 336 9 272 270 284 296 289 289 296 239 185 86 170 205 206 249 277 277 258 255 254 251 253 252 251 249 247 247
327 328 328 328 328 329 330 330 329 329 327 326 325 324 321 316 312 309 307 308 308 308 308 307 306 304 303 304 303 301 300 300 300 299 298 297 295 293 288 281 278 277 278 281 282 283 283 281 274 268 260 258 264 265 284 303 299 297 102 107 265 202 250 288 296 300 283 272 276 227 187 150 223 221 255 276 278 260 256 256 254 252 251 250 250 248 246 247
329 328 328 328 329 330 331 331 331 331 330 330 329 328 325 321 317 313 310 309 308 308 307 307 306 305 305 306 304 303 302 302 302 300 298 296 294 290 284 279 277 278 282 283 283 283 275 270 255 248 261 263 262 262 272 248 230 251 208 186 210 192 191 268 294 303 296 269 238 224 208 184 224 245 278 307 280 242 260 260 254 249 247 247 248 246 245 245
329 328 329 330 331 331 330 331 334 334 333 334 333 331 327 323 320 315 313 311 309 308 307 307 307 305 306 306 305 306 306 305 303 299 296 294 291 287 283 282 281 284 288 286 281 269 243 240 245 246 254 264 278 265 242 233 204 211 241 241 247 229 188 180 294 287 284 273 232 228 230 222 227 237 285 331 295 263 265 263 260 254 249 248 248 246 244 243
330 330 330 331 332 332 331 332 335 335 335 334 333 331 327 324 321 318 315 312 310 309 307 307 305 304 306 306 305 306 306 306 304 299 297 293 286 282 283 284 289 292 290 279 251 237 225 220 244 257 263 293 315 291 267 263 238 235 257 262 260 256 232 219 258 269 273 264 252 251 243 241 239 247 256 244 247 268 277 261 257 256 254 253 251 249 245 243
332 332 332 332 333 333 333 334 335 336 335 334 332 330 327 323 320 317 314 312 311 309 308 308 305 305 308 307 306 305 305 306 303 296 292 287 279 279 283 282 288 298 291 270 215 202 220 225 233 257 297 318 320 304 283 268 256 260 269 270 265 258 261 248 229 257 273 265 263 264 255 254 249 254 255 233 240 266 277 267 262 256 252 249 246 245 242 240
333 333 332 333 334 336 336 335 335 335 335 334 332 329 325 322 320 318 315 313 312 310 310 309 307 308 311 308 307 306 305 307 301 287 285 283 280 285 290 284 275 265 274 258 201 184 222 239 233 243 290 307 304 302 289 265 253 258 260 261 265 258 261 261 232 236 261 275 278 265 260 267 263 264 269 264 265 271 270 265 261 256 251 249 250 252 253 250
334 333 334 335 337 338 337 336 335 335 335 334 330 327 325 323 322 320 317 316 315 314 312 309 308 311 312 308 307 307 307 311 305 279 278 281 283 294 299 296 281 248 226 204 192 201 230 244 242 250 292 301 294 294 293 282 270 264 264 262 261 263 265 265 252 245 262 283 284 265 258 260 261 261 260 265 267 258 254 255 254 258 260 260 263 266 267 264
335 335 336 337 338 338 337 337 337 336 335 332 330 328 326 324 322 319 318 318 317 316 313 309 309 313 312 307 302 302 304 305 303 280 274 284 292 298 294 286 265 239 220 196 198 221 232 233 240 256 296 297 288 287 284 288 287 278 277 270 267 278 282 278 276 272 274 280 278 272 267 257 251 255 252 241 241 245 254 261 264 267 269 272 274 270 267 265
336 337 339 339 338 338 338 338 338 336 334 332 330 328 326 324 322 321 320 318 318 317 314 311 313 314 312 308 301 301 298 291 293 288 280 293 301 297 291 287 254 227 232 221 206 223 242 233 244 269 295 292 286 281 278 288 291 285 278 269 269 286 291 291 292 288 282 280 279 279 277 262 249 253 253 236 236 252 262 268 272 273 273 274 273 270 267 265
337 338 339 339 339 339 340 340 338 336 335 333 330 328 326 325 324 324 322 320 319 318 314 312 314 312 311 310 304 303 299 287 290 286 284 296 302 299 289 277 240 224 241 245 214 217 241 241 253 283 292 288 284 276 277 297 307 318 314 308 304 297 297 296 292 288 283 280 280 282 282 268 246 245 245 235 241 256 261 269 276 275 274 274 273 271 268 264
336 337 338 339 339 340 340 340 339 337 335 333 331 330 329 329 329 327 325 324 321 315 312 314 316 315 314 310 304 303 303 297 296 288 293 300 297 293 267 238 245 238 244 248 222 220 240 248 261 283 287 290 290 284 293 312 326 347 334 332 332 316 307 307 299 289 280 277 277 276 276 270 242 237 239 238 250 260 266 277 279 277 277 277 274 270 267 265
334 336 338 339 339 340 340 340 340 338 336 335 334 334 335 334 332 331 330 329 325 318 316 318 319 320 318 311 303 303 309 318 317 298 295 298 292 285 259 248 259 239 232 233 220 223 238 248 260 274 280 281 281 293 316 317 322 332 331 342 345 332 323 324 317 297 282 282 284 275 269 283 277 271 269 262 263 270 277 280 280 284 285 282 279 273 269 268
333 335 338 338 338 339 340 341 341 340 338 337 338 339 339 338 336 336 338 335 333 330 326 323 322 320 316 309 302 304 316 329 331 316 315 309 300 290 268 265 270 242 227 224 214 218 231 242 256 266 277 285 279 287 296 305 321 327 332 343 340 327 323 335 333 312 301 298 297 354 316 290 289 284 280 273 271 276 280 282 285 289 289 285 283 279 274 271
332 334 337 337 337 338 340 342 343 341 340 340 343 343 343 343 341 340 343 343 341 338 333 328 325 322 317 312 304 309 325 331 320 325 333 318 306 305 287 280 278 244 226 223 219 224 233 243 258 266 275 284 276 274 272 296 324 321 318 322 321 319 322 348 349 325 328 322 295 349 286 286 291 284 283 285 283 283 284 288 293 294 292 287 283 280 277 276
332 333 336 336 337 338 341 344 344 342 342 343 347 347 347 349 347 343 346 347 345 341 338 332 325 322 321 321 324 353 1 342 326 327 330 319 316 322 306 294 284 239 224 226 230 236 242 249 259 265 271 268 263 267 264 283 312 312 318 322 320 325 324 348 351 318 322 347 309 307 297 295 295 287 292 298 294 293 292 293 295 294 292 289 286 285 283 282
332 333 334 335 336 338 341 344 344 343 344 348 351 351 352 354 353 350 351 351 349 347 341 335 330 325 323 330 353 27 20 356 343 334 326 323 324 324 314 303 274 227 221 225 233 242 250 257 261 259 264 268 270 270 262 272 293 308 331 331 321 327 322 325 345 336 1 359 312 311 311 304 298 293 296 300 301 305 300 296 296 295 294 294 293 293 292 291
332 332 333 335 337 339 342 345 345 345 347 351 354 354 355 356 359 1 360 355 354 352 345 343 346 339 332 350 16 25 17 358 352 347 336 331 331 325 317 284 246 232 223 224 232 242 247 252 256 255 262 274 282 285 284 291 300 313 330 319 312 327 329 325 337 337 333 314 303 311 311 303 302 300 298 300 306 307 300 297 299 299 300 302 303 304 304 302
331 332 333 336 337 340 343 345 345 345 348 354 355 356 357 358 2 6 5 0 356 356 354 353 357 357 359 11 16 18 16 1 353 351 340 333 331 323 313 281 254 244 230 225 226 233 244 251 253 254 263 275 283 292 298 301 304 310 315 308 307 320 328 333 331 327 327 316 306 309 306 303 305 302 300 304 305 304 303 303 304 304 305 308 312 314 316 315
330 332 333 335 337 341 344 345 345 346 350 355 355 357 359 360 3 3 1 1 359 359 1 359 357 2 10 13 15 9 3 358 353 350 346 340 331 318 306 292 259 234 224 225 223 224 239 260 254 256 267 276 284 293 298 297 296 300 301 301 306 311 317 323 315 313 320 316 311 307 304 309 310 304 305 308 305 306 310 310 310 311 311 313 316 317 318 318
329 331 333 335 338 342 344 345 345 346 352 354 354 359 0 360 2 2 358 358 360 4 9 15 18 20 24 28 29 11 357 357 357 351 350 345 335 326 307 287 259 226 222 236 236 230 248 275 262 259 272 282 289 296 301 297 292 291 290 292 300 307 310 309 307 307 307 309 310 307 307 310 304 303 310 312 308 310 314 315 314 315 314 314 315 314 314 314
328 330 333 334 338 342 343 344 345 347 352 353 353 358 0 1 2 1 0 359 2 15 25 35 43 43 44 39 26 12 357 355 360 355 351 348 342 337 319 288 262 233 229 241 249 246 256 272 272 264 274 286 291 295 297 294 292 289 285 288 296 302 302 300 303 304 301 303 309 307 308 306 299 304 311 310 307 311 317 317 316 317 317 315 313 311 311 312
328 328 330 332 338 342 343 344 345 347 352 353 353 356 359 2 2 0 5 7 11 27 42 46 46 46 49 38 15 6 354 354 1 360 357 358 354 345 334 315 281 250 236 236 244 251 253 260 273 278 280 284 287 293 292 287 288 289 289 293 295 293 290 291 297 301 300 303 308 308 305 297 295 303 306 304 306 310 316 319 317 317 318 315 310 307 308 311
327 325 326 333 339 342 341 343 344 347 352 354 352 353 356 1 2 1 8 17 23 33 42 41 36 34 30 16 6 358 351 354 359 358 360 1 1 354 344 338 310 269 248 238 240 252 256 258 269 278 280 280 282 287 283 278 280 285 292 297 294 287 285 288 293 297 298 300 302 304 300 293 293 298 299 299 303 306 311 317 316 314 314 311 308 308 310 313
325 324 324 332 338 338 339 343 345 346 351 354 352 349 352 358 359 0 7 16 24 26 26 28 20 11 9 360 353 350 350 354 354 353 357 359 360 357 350 343 328 301 273 247 239 248 257 260 269 275 273 275 282 280 274 276 285 290 296 300 296 289 290 294 295 294 293 289 287 289 290 289 290 294 294 295 299 301 305 310 309 307 307 308 311 314 316 317
322 322 322 328 335 337 340 344 344 345 348 351 349 345 348 354 355 356 360 4 12 12 6 6 357 345 346 343 341 343 347 351 349 348 350 354 356 354 351 346 335 327 308 263 245 249 257 263 270 273 272 277 280 272 273 287 293 293 297 297 292 288 290 294 295 291 285 281 283 285 285 284 286 288 290 293 297 298 300 303 302 302 304 307 311 314 316 318
318 319 318 324 332 336 340 345 344 342 346 348 347 343 343 346 349 351 350 350 355 357 352 348 338 325 326 334 338 339 342 346 347 344 342 345 348 348 351 349 342 339 325 286 260 257 260 264 268 273 280 282 269 259 274 290 291 291 295 293 288 287 289 292 293 291 288 285 286 286 284 283 285 289 289 292 296 296 298 301 303 305 308 309 311 312 315 320
314 314 316 323 332 335 338 344 343 338 340 346 347 342 338 339 343 345 341 338 341 345 346 341 329 315 315 326 332 333 337 343 345 341 338 340 341 343 349 348 345 347 332 301 276 267 267 269 269 272 279 276 267 273 284 289 290 289 290 290 288 290 293 294 294 292 290 286 283 283 283 283 286 290 290 291 295 296 299 302 306 310 312 311 312 312 315 320
310 311 314 320 329 335 335 338 341 337 335 343 347 341 333 333 337 338 335 333 336 339 342 338 327 317 312 315 323 328 333 340 342 340 338 338 334 336 344 347 345 349 346 323 298 281 272 270 269 274 278 278 282 290 291 293 294 291 290 292 292 293 296 296 295 294 290 283 279 279 282 284 287 289 289 293 299 301 304 307 308 312 314 311 311 311 314 319
305 307 310 315 323 330 332 333 339 338 332 337 344 340 331 330 333 333 330 331 337 340 341 339 330 321 312 306 312 321 328 334 339 338 336 334 331 332 338 343 344 347 346 339 318 292 276 271 269 274 282 285 289 291 293 299 301 295 295 297 295 296 298 297 298 297 291 285 282 282 283 286 289 290 292 298 304 305 307 309 309 311 312 311 310 312 315 318
301 302 302 305 313 322 327 329 333 335 329 329 338 340 333 328 328 328 326 327 335 340 342 342 333 322 313 306 304 313 322 326 332 336 333 330 331 333 334 336 340 342 341 341 331 309 287 273 268 272 281 287 289 290 294 300 299 296 298 299 297 299 300 300 300 296 291 291 290 288 286 286 289 292 296 301 305 306 307 308 309 309 311 313 313 313 315 315
297 298 296 296 302 312 320 324 328 331 326 322 330 335 333 327 324 323 322 322 328 337 341 341 337 329 318 308 302 308 315 319 324 332 331 328 331 333 331 332 337 338 338 340 338 332 320 291 276 280 288 288 287 291 297 298 297 296 298 297 296 298 300 300 300 296 295 298 297 293 290 289 290 292 295 300 304 305 305 307 310 311 313 315 314 312 314 314
292 293 293 294 299 305 312 317 323 326 322 318 323 329 329 326 321 318 317 316 322 333 339 340 339 335 326 313 306 307 310 314 320 327 328 326 330 333 329 330 335 334 334 337 339 339 339 325 291 287 292 289 286 290 294 296 298 300 300 300 299 300 300 300 298 295 297 300 299 297 296 295 294 294 297 302 306 307 308 311 313 313 313 313 312 314 316 314
288 288 287 288 293 300 306 312 318 323 322 316 316 321 323 322 320 315 311 311 317 328 336 340 342 340 332 322 313 307 308 314 318 324 326 325 330 335 331 329 334 333 329 334 341 341 338 331 314 303 298 294 292 292 292 296 302 304 305 307 307 305 303 301 300 299 300 301 299 297 298 298 297 299 303 308 311 311 313 315 314 314 315 317 317 320 318 315
284 283 283 283 286 293 301 307 313 320 321 314 308 312 315 315 314 310 304 303 310 321 329 336 342 342 335 328 320 309 309 313 316 321 325 325 329 335 333 328 331 330 328 332 339 341 336 331 326 320 311 305 302 300 299 301 304 308 311 311 308 309 308 305 304 304 303 303 301 299 301 301 301 306 312 315 315 315 315 317 318 319 324 326 323 322 321 320
281 280 280 279 280 286 293 299 307 313 315 310 304 303 306 307 304 300 293 291 298 310 319 327 336 340 337 331 325 317 313 315 316 319 322 324 328 332 331 326 325 326 327 330 336 338 335 332 332 330 325 319 314 309 304 302 302 307 312 310 305 309 311 307 307 307 304 303 304 304 305 305 306 313 317 318 318 319 320 323 326 327 331 332 327 327 329 327
278 278 277 275 275 279 284 290 297 303 306 305 298 295 297 298 295 290 284 280 285 297 307 319 330 334 334 332 328 323 320 318 318 317 320 324 327 329 325 320 318 321 323 325 331 336 337 334 334 336 333 324 320 319 313 307 308 311 313 311 307 310 314 312 308 307 306 305 306 306 306 307 310 316 320 321 323 327 330 333 336 336 335 334 333 335 335 333
275 276 275 274 272 273 277 282 288 294 300 302 294 287 289 291 288 283 277 271 273 283 296 312 324 327 327 329 329 328 325 323 321 317 318 321 323 324 320 313 311 314 317 321 326 331 336 335 333 335 333 325 324 327 324 319 318 318 316 315 314 315 317 314 307 305 306 306 306 306 306 310 314 319 323 326 328 334 340 340 341 342 338 335 338 339 337 337
Height
5818 5817 5816 5815 5814 5813 5812 5812 5811 5810 5810 5809 5809 5809 5808 5808 5807 5806 5806 5805 5805 5804 5803 5803 5802 5802 5802 5801 5801 5800 5800 5800 5799 5799 5798 5798 5798 5797 5797 5796 5796 5796 5796 5796 5795 5795 5795 5795 5795 5796 5796 5796 5796 5796 5795 5796 5798 5797 5798 5799 5799 5800 5802 5803 5806 5807 5806 5808 5812 5813 5808 5805 5807 5806 5806 5810 5813 5814 5814 5815 5817 5820 5819 5820 5823 5819 5813 5814
5817 5816 5815 5814 5813 5813 5812 5811 5810 5809 5809 5808 5808 5807 5807 5806 5806 5805 5804 5804 5803 5802 5802 5801 5801 5800 5800 5799 5799 5798 5798 5797 5797 5796 5796 5795 5795 5794 5794 5794 5793 5793 5793 5793 5792 5792 5792 5792 5792 5793 5793 5793 5793 5793 5792 5794 5795 5794 5795 5795 5796 5797 5799 5801 5802 5801 5800 5800 5804 5805 5800 5798 5802 5804 5803 5807 5810 5810 5809 5810 5814 5816 5817 5818 5821 5818 5811 5811
5817 5816 5815 5814 5813 5812 5811 5811 5810 5809 5808 5807 5807 5806 5805 5805 5804 5803 5803 5802 5801 5801 5800 5799 5799 5798 5798 5797 5796 5796 5795 5795 5794 5794 5793 5792 5792 5791 5791 5790 5790 5790 5790 5790 5789 5789 5789 5789 5790 5790 5790 5790 5790 5790 5790 5791 5791 5792 5792 5791 5793 5794 5795 5797 5795 5792 5793 5794 5797 5797 5794 5794 5798 5801 5802 5804 5806 5806 5804 5806 5811 5813 5813 5814 5815 5815 5813 5812
5817 5816 5815 5813 5812 5812 5811 5810 5809 5808 5807 5806 5806 5805 5804 5803 5803 5802 5801 5800 5800 5799 5798 5797 5797 5796 5795 5794 5794 5793 5793 5792 5791 5791 5790 5789 5789 5788 5788 5787 5787 5787 5787 5787 5786 5786 5786 5786 5787 5787 5787 5787 5787 5787 5788 5787 5786 5788 5788 5788 5791 5790 5790 5791 5787 5785 5788 5789 5792 5793 5792 5792 5794 5796 5798 5800 5802 5802 5801 5803 5806 5807 5808 5809 5810 5812 5813 5810
5816 5815 5814 5813 5812 5811 5810 5810 5809 5807 5806 5805 5805 5804 5803 5802 5801 5800 5799 5798 5797 5797 5796 5795 5794 5794 5793 5792 5791 5790 5790 5789 5788 5788 5787 5786 5786 5785 5785 5784 5784 5784 5784 5783 5783 5783 5783 5784 5784 5784 5784 5784 5783 5784 5785 5783 5781 5784 5785 5785 5788 5785 5783 5785 5782 5781 5785 5787 5789 5790 5791 5790 5790 5791 5793 5794 5797 5797 5799 5800 5800 5802 5804 5803 5805 5808 5806 5803
5815 5814 5813 5812 5811 5810 5809 5809 5808 5806 5805 5804 5803 5802 5801 5800 5799 5798 5797 5796 5795 5794 5794 5793 5792 5791 5790 5789 5788 5787 5787 5786 5785 5785 5784 5783 5783 5782 5782 5781 5781 5781 5780 5780 5780 5780 5780 5781 5780 5781 5781 5781 5780 5780 5781 5778 5777 5781 5782 5782 5783 5780 5778 5780 5779 5778 5782 5785 5787 5787 5786 5787 5786 5786 5788 5791 5792 5793 5795 5796 5795 5796 5798 5797 5799 5803 5800 5798
5815 5814 5813 5812 5811 5810 5809 5808 5807 5805 5804 5803 5802 5801 5800 5798 5797 5796 5795 5794 5793 5792 5791 5790 5789 5788 5787 5786 5785 5784 5784 5783 5782 5782 5781 5780 5779 5779 5778 5778 5778 5778 5777 5777 5777 5777 5777 5777 5777 5777 5777 5778 5776 5776 5776 5774 5775 5779 5778 5778 5778 5776 5775 5777 5777 5775 5777 5780 5782 5782 5781 5782 5782 5782 5785 5787 5788 5789 5789 5791 5791 5792 5793 5794 5796 5799 5798 5795
5815 5813 5812 5811 5810 5809 5808 5807 5805 5804 5803 5801 5800 5799 5797 5796 5795 5794 5793 5792 5791 5790 5789 5788 5786 5785 5784 5783 5782 5782 5781 5780 5779 5779 5778 5777 5776 5776 5775 5775 5775 5774 5774 5774 5774 5774 5774 5774 5774 5773 5774 5774 5772 5772 5772 5771 5774 5774 5774 5775 5773 5771 5771 5773 5774 5773 5772 5774 5775 5777 5777 5777 5778 5778 5781 5782 5784 5784 5783 5787 5789 5789 5789 5790 5790 5793 5794 5793
5814 5813 5811 5810 5809 5808 5806 5805 5804 5803 5801 5800 5798 5797 5795 5794 5793 5792 5790 5789 5788 5787 5786 5785 5784 5783 5782 5781 5780 5779 5778 5778 5777 5776 5775 5774 5774 5773 5772 5772 5772 5771 5771 5771 5771 5771 5770 5770 5770 5770 5771 5770 5768 5770 5769 5769 5770 5769 5770 5771 5768 5767 5768 5769 5770 5769 5768 5769 5770 5771 5772 5773 5773 5774 5775 5777 5779 5778 5779 5783 5784 5784 5784 5785 5785 5788 5790 5791
5814 5812 5811 5809 5808 5807 5805 5804 5802 5801 5799 5798 5796 5794 5793 5792 5790 5789 5788 5787 5786 5785 5784 5783 5781 5780 5779 5778 5777 5777 5776 5775 5774 5773 5772 5772 5771 5770 5770 5769 5769 5768 5768 5768 5768 5767 5767 5767 5767 5767 5767 5766 5766 5767 5766 5766 5766 5765 5766 5766 5765 5764 5764 5764 5764 5764 5764 5765 5765 5766 5766 5768 5768 5769 5771 5773 5774 5773 5775 5776 5777 5779 5780 5780 5781 5784 5787 5790
5814 5812 5810 5809 5807 5806 5804 5802 5801 5799 5798 5796 5794 5793 5791 5790 5789 5787 5786 5785 5784 5783 5782 5781 5779 5778 5777 5776 5775 5774 5773 5772 5771 5770 5770 5769 5768 5767 5767 5766 5766 5766 5765 5765 5765 5764 5764 5764 5764 5764 5764 5763 5764 5764 5763 5763 5762 5762 5763 5762 5762 5761 5761 5761 5760 5760 5760 5760 5761 5761 5762 5763 5764 5765 5767 5770 5768 5767 5771 5771 5771 5774 5775 5776 5779 5782 5785 5787
5813 5811 5809 5808 5806 5804 5803 5801 5799 5798 5796 5794 5793 5791 5789 5788 5787 5786 5784 5783 5782 5781 5780 5779 5777 5776 5775 5774 5773 5771 5770 5769 5768 5767 5766 5766 5765 5764 5764 5763 5763 5763 5762 5762 5762 5762 5762 5762 5762 5761 5761 5761 5761 5760 5760 5760 5759 5759 5759 5759 5759 5758 5758 5758 5757 5757 5756 5757 5758 5758 5759 5760 5761 5762 5763 5767 5764 5761 5765 5767 5767 5769 5772 5775 5777 5779 5781 5782
5811 5810 5808 5807 5805 5803 5801 5800 5798 5796 5794 5792 5791 5789 5787 5786 5785 5784 5783 5782 5780 5779 5778 5777 5775 5774 5773 5771 5770 5769 5768 5767 5765 5764 5764 5763 5762 5761 5761 5761 5760 5760 5759 5759 5759 5759 5759 5759 5759 5758 5758 5758 5758 5757 5757 5757 5757 5756 5757 5757 5756 5756 5756 5755 5755 5756 5755 5755 5756 5757 5758 5759 5759 5760 5761 5762 5759 5757 5759 5763 5765 5767 5769 5772 5773 5775 5777 5778
5810 5808 5807 5805 5804 5802 5800 5798 5796 5794 5792 5790 5789 5787 5785 5784 5783 5782 5781 5780 5779 5777 5776 5774 5773 5772 5770 5769 5768 5766 5765 5764 5763 5762 5761 5760 5759 5759 5758 5758 5758 5757 5757 5757 5757 5757 5757 5756 5756 5756 5755 5756 5755 5755 5755 5755 5755 5755 5755 5755 5755 5757 5758 5755 5754 5755 5755 5754 5755 5756 5757 5759 5760 5760 5759 5757 5755 5756 5758 5759 5762 5763 5765 5767 5769 5771 5773 5773
5808 5807 5805 5804 5802 5800 5798 5796 5794 5792 5790 5788 5787 5785 5783 5782 5781 5780 5779 5778 5777 5775 5773 5772 5771 5769 5767 5767 5765 5764 5762 5761 5760 5759 5758 5757 5756 5756 5756 5756 5755 5755 5755 5755 5755 5754 5754 5754 5754 5754 5753 5753 5753 5753 5753 5753 5754 5754 5754 5756 5757 5758 5759 5757 5755 5755 5755 5754 5754 5755 5756 5759 5761 5759 5756 5754 5754 5756 5756 5756 5757 5759 5761 5763 5764 5766 5768 5769
5807 5805 5804 5802 5800 5798 5797 5795 5793 5790 5788 5786 5784 5783 5781 5780 5779 5778 5777 5776 5774 5772 5771 5769 5768 5766 5764 5763 5763 5761 5760 5759 5758 5756 5756 5755 5754 5754 5754 5754 5754 5753 5753 5753 5753 5752 5752 5752 5752 5752 5752 5752 5752 5752 5752 5753 5755 5755 5754 5757 5758 5758 5759 5757 5755 5755 5754 5753 5754 5755 5755 5758 5760 5757 5755 5754 5754 5753 5753 5754 5755 5756 5758 5758 5759 5762 5764 5765
5806 5804 5802 5800 5798 5796 5795 5793 5791 5789 5786 5784 5783 5781 5780 5778 5777 5776 5775 5773 5772 5770 5768 5766 5765 5763 5761 5760 5759 5758 5758 5756 5755 5754 5753 5753 5752 5752 5752 5752 5752 5751 5751 5751 5751 5750 5750 5750 5750 5751 5751 5751 5751 5751 5752 5753 5755 5755 5754 5755 5756 5757 5758 5758 5756 5754 5752 5752 5753 5754 5754 5756 5758 5757 5755 5754 5753 5752 5752 5753 5753 5754 5755 5755 5756 5758 5760 5760
5804 5802 5801 5799 5797 5795 5793 5791 5790 5787 5785 5783 5781 5780 5778 5777 5776 5774 5773 5771 5769 5767 5765 5763 5761 5759 5758 5757 5755 5754 5754 5753 5753 5751 5751 5751 5750 5750 5751 5750 5750 5750 5749 5749 5749 5749 5749 5749 5749 5750 5750 5750 5750 5750 5751 5752 5752 5753 5753 5753 5753 5754 5755 5757 5757 5753 5751 5752 5752 5753 5754 5754 5756 5756 5755 5757 5755 5752 5752 5752 5752 5752 5752 5752 5753 5755 5756 5756
5803 5801 5799 5797 5795 5793 5791 5789 5788 5786 5784 5782 5780 5779 5777 5775 5774 5772 5770 5768 5767 5764 5762 5761 5759 5756 5755 5755 5753 5752 5751 5750 5750 5749 5749 5749 5749 5749 5749 5749 5748 5748 5748 5748 5748 5749 5749 5749 5749 5749 5749 5749 5749 5750 5750 5750 5751 5751 5751 5752 5752 5752 5753 5755 5754 5751 5750 5752 5751 5752 5752 5753 5754 5754 5755 5757 5755 5751 5750 5750 5750 5750 5750 5750 5751 5752 5752 5752
5802 5800 5798 5796 5794 5792 5790 5788 5787 5785 5783 5781 5779 5778 5776 5774 5772 5771 5769 5766 5764 5762 5759 5757 5756 5754 5753 5752 5750 5749 5749 5748 5748 5747 5747 5747 5747 5747 5748 5747 5747 5747 5747 5747 5747 5748 5748 5748 5748 5748 5748 5748 5749 5749 5749 5749 5750 5750 5750 5751 5750 5751 5751 5752 5752 5751 5749 5749 5750 5750 5751 5751 5752 5752 5752 5752 5751 5749 5748 5748 5747 5747 5747 5747 5747 5747 5746 5747
5800 5798 5796 5794 5793 5791 5789 5787 5785 5784 5782 5780 5778 5776 5774 5772 5769 5768 5766 5764 5762 5759 5757 5754 5752 5751 5751 5749 5748 5747 5746 5746 5746 5746 5745 5746 5746 5746 5746 5746 5746 5745 5745 5746 5746 5746 5747 5747 5747 5747 5747 5748 5748 5748 5748 5748 5748 5749 5749 5749 5749 5749 5749 5749 5749 5750 5748 5747 5748 5749 5748 5749 5750 5750 5749 5749 5748 5747 5746 5745 5744 5743 5743 5743 5743 5743 5745 5745
5799 5797 5795 5793 5792 5790 5788 5786 5784 5782 5780 5779 5776 5774 5772 5769 5766 5764 5762 5760 5758 5756 5754 5752 5750 5749 5749 5747 5746 5745 5744 5744 5745 5745 5745 5745 5745 5744 5744 5744 5744 5744 5744 5745 5745 5745 5746 5746 5746 5747 5747 5747 5747 5747 5747 5747 5747 5747 5747 5747 5748 5747 5747 5747 5747 5747 5745 5745 5746 5746 5746 5747 5747 5746 5746 5746 5745 5743 5741 5741 5740 5740 5740 5740 5741 5743 5744 5745
5798 5796 5794 5792 5791 5789 5787 5785 5783 5781 5779 5777 5774 5772 5769 5767 5764 5762 5759 5757 5755 5754 5751 5750 5748 5747 5747 5746 5745 5744 5744 5743 5744 5744 5744 5744 5744 5743 5743 5743 5743 5743 5743 5744 5744 5744 5745 5745 5746 5746 5747 5747 5746 5746 5746 5746 5745 5746 5745 5745 5745 5745 5744 5744 5744 5744 5744 5744 5744 5743 5744 5744 5742 5742 5743 5743 5741 5738 5737 5737 5737 5738 5739 5738 5739 5741 5742 5742
5797 5795 5793 5791 5790 5788 5786 5784 5782 5780 5778 5775 5773 5770 5768 5765 5763 5760 5757 5754 5752 5751 5749 5748 5746 5745 5745 5744 5744 5744 5744 5743 5743 5743 5743 5743 5743 5742 5742 5742 5742 5741 5741 5742 5743 5743 5744 5745 5745 5746 5746 5746 5745 5745 5745 5745 5744 5744 5744 5744 5743 5743 5742 5742 5741 5741 5741 5741 5740 5740 5741 5740 5739 5740 5740 5739 5738 5736 5736 5735 5735 5736 5736 5736 5737 5737 5738 5738
5796 5794 5792 5790 5789 5786 5784 5783 5781 5778 5776 5774 5771 5768 5766 5763 5761 5758 5755 5752 5750 5749 5747 5746 5745 5744 5743 5743 5742 5742 5743 5742 5742 5742 5742 5742 5742 5741 5741 5741 5741 5740 5740 5741 5742 5742 5743 5744 5744 5745 5745 5745 5744 5744 5743 5744 5744 5744 5744 5744 5743 5741 5741 5740 5740 5739 5739 5739 5737 5737 5738 5737 5736 5737 5737 5737 5736 5734 5734 5734 5734 5734 5734 5734 5734 5734 5735 5735
5795 5793 5791 5789 5788 5786 5784 5782 5779 5777 5774 5772 5769 5766 5763 5761 5758 5756 5753 5751 5749 5747 5745 5745 5744 5743 5743 5742 5741 5741 5741 5741 5741 5742 5742 5741 5741 5740 5740 5740 5740 5740 5739 5740 5741 5741 5742 5743 5743 5744 5744 5744 5744 5742 5742 5743 5744 5744 5744 5743 5742 5740 5740 5739 5738 5738 5737 5737 5737 5736 5735 5734 5735 5735 5735 5735 5733 5731 5732 5733 5733 5732 5732 5732 5732 5732 5732 5732
5794 5792 5790 5788 5786 5784 5782 5780 5778 5775 5773 5770 5767 5764 5761 5759 5756 5754 5751 5750 5748 5747 5745 5744 5743 5742 5742 5741 5740 5740 5740 5741 5741 5741 5741 5741 5740 5739 5738 5738 5739 5738 5738 5739 5740 5741 5741 5742 5743 5743 5743 5743 5743 5742 5742 5743 5743 5743 5743 5742 5740 5739 5739 5738 5737 5736 5735 5735 5735 5734 5732 5731 5733 5734 5734 5733 5731 5730 5731 5731 5731 5730 5730 5730 5730 5730 5729 5729
5792 5791 5789 5787 5785 5783 5781 5779 5776 5774 5771 5768 5765 5762 5760 5757 5754 5752 5750 5748 5747 5746 5745 5744 5743 5742 5741 5740 5740 5740 5740 5740 5741 5741 5741 5740 5739 5738 5737 5737 5737 5737 5737 5737 5739 5740 5741 5741 5742 5743 5742 5742 5742 5742 5742 5742 5742 5742 5741 5740 5739 5738 5738 5737 5736 5735 5734 5733 5734 5734 5731 5730 5731 5732 5732 5731 5730 5730 5730 5729 5729 5728 5728 5728 5728 5727 5726 5726
5791 5790 5788 5786 5784 5782 5779 5777 5775 5772 5769 5767 5764 5761 5758 5756 5753 5750 5749 5748 5746 5745 5744 5743 5742 5741 5741 5739 5739 5739 5740 5740 5740 5740 5740 5739 5738 5738 5737 5736 5736 5736 5736 5737 5738 5740 5740 5741 5741 5742 5742 5742 5742 5742 5742 5741 5741 5741 5740 5739 5739 5738 5737 5736 5735 5734 5734 5733 5733 5733 5732 5730 5730 5730 5730 5730 5729 5729 5729 5728 5727 5726 5725 5725 5724 5724 5723 5722
5790 5789 5787 5785 5783 5781 5778 5776 5774 5771 5768 5765 5763 5760 5758 5755 5752 5749 5748 5747 5746 5745 5744 5743 5742 5741 5740 5739 5739 5739 5740 5740 5740 5740 5739 5738 5738 5737 5736 5735 5735 5735 5736 5737 5737 5738 5739 5740 5741 5741 5741 5742 5742 5741 5741 5741 5740 5740 5739 5739 5738 5737 5736 5735 5735 5734 5733 5733 5732 5732 5732 5731 5729 5729 5729 5729 5729 5728 5727 5726 5725 5724 5723 5722 5721 5720 5720 5719
5789 5788 5786 5784 5782 5780 5777 5775 5773 5770 5767 5765 5762 5760 5757 5754 5752 5750 5748 5747 5746 5745 5744 5743 5742 5741 5740 5740 5739 5739 5740 5740 5740 5739 5739 5738 5737 5736 5735 5735 5735 5735 5736 5737 5737 5738 5738 5739 5740 5740 5740 5741 5741 5740 5740 5739 5739 5739 5739 5739 5737 5736 5735 5734 5734 5733 5733 5732 5732 5732 5731 5730 5729 5728 5728 5728 5727 5727 5726 5725 5724 5722 5721 5720 5719 5718 5716 5715
5788 5787 5785 5783 5781 5778 5776 5774 5771 5769 5766 5764 5762 5759 5757 5754 5752 5750 5748 5747 5746 5745 5743 5743 5742 5741 5741 5740 5740 5740 5740 5740 5740 5739 5738 5737 5736 5735 5735 5734 5735 5735 5735 5736 5737 5737 5738 5738 5739 5739 5739 5740 5739 5739 5738 5738 5738 5739 5738 5738 5737 5736 5736 5734 5734 5733 5732 5732 5732 5731 5730 5730 5729 5728 5727 5727 5726 5725 5724 5723 5722 5720 5719 5717 5716 5715 5714 5712
5787 5786 5784 5782 5780 5777 5775 5772 5770 5768 5765 5763 5761 5759 5757 5754 5751 5750 5749 5748 5746 5745 5743 5742 5742 5741 5741 5740 5740 5740 5740 5740 5740 5739 5738 5737 5736 5735 5735 5734 5734 5735 5735 5735 5736 5736 5736 5737 5737 5738 5739 5739 5739 5738 5738 5738 5738 5738 5738 5737 5737 5736 5735 5734 5733 5733 5732 5731 5731 5730 5730 5729 5728 5727 5726 5725 5725 5724 5723 5721 5720 5718 5716 5715 5713 5711 5710 5709
5786 5785 5783 5781 5779 5776 5774 5772 5769 5767 5765 5763 5761 5759 5756 5754 5752 5750 5749 5748 5747 5745 5744 5742 5742 5741 5741 5741 5741 5740 5740 5740 5740 5739 5738 5737 5736 5735 5734 5734 5734 5734 5734 5734 5735 5736 5736 5735 5736 5737 5738 5738 5738 5738 5738 5738 5737 5737 5737 5736 5736 5735 5734 5734 5733 5732 5732 5731 5730 5729 5729 5728 5727 5726 5724 5724 5723 5722 5721 5719 5718 5716 5714 5712 5710 5708 5707 5705
5785 5784 5782 5780 5777 5775 5773 5771 5769 5766 5764 5763 5761 5759 5756 5754 5752 5751 5749 5748 5747 5745 5744 5743 5742 5742 5742 5741 5741 5741 5740 5740 5740 5739 5738 5737 5735 5735 5734 5734 5733 5733 5733 5734 5734 5735 5735 5734 5735 5736 5736 5737 5737 5737 5737 5736 5736 5736 5736 5735 5735 5734 5733 5733 5732 5732 5732 5731 5729 5728 5727 5727 5726 5724 5723 5722 5721 5720 5719 5718 5716 5714 5712 5709 5708 5706 5705 5703
5784 5782 5781 5779 5776 5775 5773 5770 5768 5766 5764 5762 5760 5758 5757 5755 5752 5751 5749 5748 5747 5745 5744 5743 5743 5742 5742 5742 5741 5741 5741 5740 5740 5739 5738 5737 5736 5735 5734 5733 5733 5733 5733 5733 5734 5734 5734 5734 5734 5735 5735 5736 5736 5736 5736 5736 5735 5735 5735 5734 5734 5733 5733 5732 5732 5731 5731 5730 5729 5727 5726 5726 5724 5723 5722 5720 5719 5718 5717 5716 5713 5711 5709 5707 5705 5704 5702 5700
5783 5781 5780 5778 5776 5774 5772 5769 5767 5765 5763 5762 5760 5758 5757 5755 5753 5751 5750 5748 5747 5746 5745 5744 5743 5743 5742 5742 5741 5741 5741 5740 5740 5739 5738 5737 5736 5735 5734 5733 5733 5732 5732 5732 5733 5733 5733 5733 5734 5734 5734 5735 5735 5735 5734 5734 5734 5734 5734 5733 5733 5733 5732 5732 5731 5731 5730 5729 5728 5726 5725 5724 5723 5722 5720 5718 5717 5716 5715 5713 5711 5708 5707 5705 5703 5702 5700 5698
5782 5780 5778 5777 5774 5772 5771 5769 5766 5765 5763 5761 5760 5758 5756 5755 5753 5751 5750 5748 5747 5746 5745 5744 5743 5743 5742 5742 5741 5741 5741 5740 5739 5738 5738 5737 5736 5735 5734 5733 5732 5732 5731 5731 5732 5732 5732 5733 5733 5733 5733 5733 5734 5733 5733 5732 5732 5732 5732 5732 5732 5732 5731 5731 5730 5729 5729 5728 5727 5726 5724 5722 5721 5720 5719 5716 5716 5715 5713 5712 5709 5707 5705 5704 5702 5700 5698 5695
5781 5779 5777 5775 5774 5772 5770 5768 5765 5763 5762 5761 5759 5758 5756 5755 5753 5751 5750 5749 5747 5746 5745 5744 5744 5743 5743 5742 5741 5741 5740 5739 5739 5738 5737 5736 5735 5734 5734 5733 5732 5732 5731 5731 5732 5732 5732 5732 5732 5732 5732 5732 5732 5732 5731 5731 5731 5731 5731 5731 5731 5730 5730 5729 5729 5728 5728 5727 5726 5725 5723 5720 5719 5718 5716 5715 5714 5713 5712 5711 5709 5706 5704 5702 5699 5697 5695 5692
5779 5778 5776 5774 5773 5771 5769 5766 5764 5762 5761 5760 5759 5757 5756 5754 5753 5751 5750 5749 5748 5747 5746 5745 5744 5743 5743 5742 5742 5741 5740 5739 5738 5738 5737 5736 5735 5734 5733 5733 5732 5731 5731 5731 5731 5731 5731 5731 5731 5731 5731 5731 5730 5731 5730 5730 5730 5730 5729 5729 5729 5729 5728 5728 5727 5727 5727 5726 5724 5724 5722 5718 5717 5716 5714 5713 5712 5711 5710 5708 5707 5705 5702 5699 5697 5694 5692 5689
5777 5776 5775 5773 5771 5769 5767 5765 5763 5762 5761 5759 5758 5757 5755 5754 5753 5751 5750 5749 5748 5747 5746 5745 5744 5744 5743 5742 5742 5741 5740 5739 5738 5737 5736 5736 5735 5734 5733 5732 5732 5731 5730 5730 5730 5730 5730 5730 5730 5730 5730 5729 5729 5730 5730 5729 5729 5728 5728 5728 5727 5727 5727 5726 5726 5725 5725 5724 5723 5721 5719 5716 5715 5714 5711 5710 5710 5708 5707 5705 5703 5701 5698 5695 5693 5691 5688 5686
5775 5774 5773 5771 5769 5767 5766 5765 5763 5761 5760 5759 5757 5756 5755 5754 5753 5751 5750 5749 5747 5746 5746 5745 5744 5743 5743 5742 5741 5740 5740 5739 5738 5737 5736 5735 5735 5734 5733 5732 5731 5730 5730 5729 5729 5729 5729 5729 5729 5728 5728 5728 5728 5728 5728 5728 5727 5726 5726 5726 5725 5725 5724 5724 5724 5723 5722 5722 5720 5719 5716 5713 5713 5712 5708 5707 5708 5705 5703 5700 5697 5696 5694 5692 5689 5687 5685 5682
5774 5772 5771 5769 5768 5766 5764 5763 5762 5760 5759 5758 5757 5755 5754 5753 5752 5751 5750 5749 5747 5746 5745 5744 5744 5743 5742 5742 5741 5740 5740 5739 5738 5737 5736 5735 5734 5733 5732 5732 5731 5730 5730 5729 5728 5728 5728 5728 5728 5727 5727 5727 5727 5726 5726 5726 5725 5724 5724 5724 5723 5723 5722 5722 5721 5720 5719 5719 5717 5717 5714 5710 5710 5709 5705 5705 5705 5702 5699 5696 5693 5691 5691 5688 5686 5684 5681 5679
5772 5771 5770 5768 5766 5765 5763 5762 5761 5759 5758 5757 5756 5755 5754 5753 5752 5751 5749 5748 5747 5746 5745 5744 5743 5742 5742 5741 5741 5740 5739 5739 5738 5737 5736 5735 5734 5733 5732 5731 5731 5730 5729 5729 5728 5727 5727 5727 5727 5727 5726 5726 5725 5725 5725 5724 5723 5723 5723 5722 5721 5721 5720 5719 5718 5717 5716 5715 5714 5714 5713 5708 5707 5706 5703 5702 5701 5698 5695 5693 5690 5688 5687 5686 5683 5680 5678 5676
5770 5769 5769 5767 5765 5764 5763 5761 5760 5759 5757 5756 5755 5754 5753 5752 5751 5750 5749 5748 5746 5745 5744 5743 5743 5742 5741 5741 5740 5740 5739 5738 5737 5736 5735 5734 5733 5732 5732 5731 5730 5730 5729 5728 5728 5727 5727 5726 5726 5726 5726 5725 5724 5724 5724 5723 5722 5721 5721 5720 5719 5719 5718 5717 5716 5715 5714 5713 5712 5711 5710 5708 5705 5703 5701 5700 5698 5696 5693 5691 5688 5686 5684 5682 5680 5677 5675 5673
5768 5767 5766 5766 5764 5763 5762 5760 5759 5758 5756 5755 5754 5753 5752 5751 5751 5750 5749 5748 5746 5745 5744 5743 5742 5741 5741 5740 5740 5739 5738 5738 5737 5736 5735 5734 5733 5732 5731 5730 5730 5729 5729 5728 5727 5727 5726 5726 5725 5725 5725 5725 5724 5722 5722 5722 5721 5720 5719 5718 5717 5717 5716 5715 5714 5713 5712 5711 5709 5707 5707 5706 5704 5702 5701 5699 5696 5694 5692 5689 5687 5684 5681 5679 5677 5675 5673 5670
5766 5765 5764 5763 5762 5761 5760 5759 5758 5756 5755 5754 5752 5751 5750 5750 5750 5749 5748 5747 5746 5745 5744 5743 5742 5741 5740 5739 5739 5738 5737 5737 5736 5735 5735 5734 5733 5732 5731 5730 5729 5729 5728 5727 5726 5726 5725 5725 5725 5724 5724 5724 5723 5722 5721 5721 5720 5719 5718 5717 5716 5715 5714 5713 5712 5711 5710 5709 5708 5705 5703 5703 5701 5699 5699 5697 5694 5692 5689 5687 5685 5682 5680 5677 5675 5673 5671 5669
5764 5763 5762 5761 5760 5759 5758 5758 5757 5755 5754 5753 5752 5750 5749 5748 5748 5748 5747 5747 5746 5745 5744 5743 5742 5740 5739 5739 5738 5737 5737 5736 5735 5735 5734 5733 5732 5731 5730 5730 5729 5728 5728 5727 5726 5725 5725 5724 5724 5723 5723 5722 5722 5721 5720 5720 5719 5718 5717 5715 5714 5713 5712 5711 5710 5709 5708 5707 5706 5704 5702 5700 5698 5696 5695 5694 5692 5689 5686 5684 5682 5680 5678 5675 5673 5671 5669 5668
5761 5760 5760 5759 5758 5757 5756 5755 5754 5753 5752 5751 5750 5749 5748 5747 5746 5746 5746 5746 5745 5744 5743 5742 5741 5740 5739 5738 5737 5737 5736 5735 5735 5734 5733 5732 5731 5731 5730 5729 5728 5728 5727 5726 5726 5725 5724 5723 5723 5722 5721 5721 5720 5719 5719 5718 5717 5716 5715 5714 5713 5711 5710 5709 5708 5707 5706 5705 5703 5702 5700 5698 5695 5694 5692 5691 5689 5686 5684 5682 5680 5678 5676 5673 5671 5670 5668 5666
5758 5758 5757 5756 5756 5755 5754 5753 5752 5751 5751 5750 5749 5748 5747 5746 5745 5745 5745 5744 5744 5744 5743 5742 5741 5739 5738 5737 5736 5736 5735 5735 5734 5733 5732 5731 5731 5730 5729 5729 5728 5727 5726 5726 5725 5724 5723 5723 5722 5721 5720 5719 5719 5718 5717 5716 5715 5714 5713 5712 5711 5710 5708 5707 5706 5704 5703 5702 5700 5699 5697 5695 5693 5691 5690 5688 5686 5684 5682 5680 5678 5676 5674 5672 5670 5668 5666 5664
5755 5755 5754 5754 5754 5754 5752 5751 5750 5750 5749 5748 5747 5747 5746 5744 5744 5743 5743 5743 5743 5742 5742 5741 5740 5739 5738 5737 5736 5735 5735 5734 5733 5732 5731 5731 5730 5729 5728 5728 5727 5726 5726 5725 5724 5724 5723 5722 5721 5720 5719 5718 5717 5716 5715 5714 5714 5713 5711 5710 5709 5708 5706 5705 5704 5702 5701 5700 5698 5697 5695 5693 5692 5690 5688 5686 5684 5682 5680 5678 5676 5674 5672 5670 5668 5666 5664 5663
5752 5752 5751 5751 5751 5751 5750 5750 5749 5748 5747 5746 5746 5745 5744 5743 5742 5742 5742 5742 5741 5741 5741 5740 5739 5738 5737 5736 5735 5734 5734 5733 5732 5731 5730 5730 5729 5728 5727 5727 5726 5726 5725 5724 5723 5723 5722 5721 5720 5719 5718 5717 5716 5715 5714 5713 5712 5711 5710 5709 5708 5706 5705 5703 5702 5700 5699 5698 5697 5695 5693 5692 5690 5688 5686 5684 5682 5680 5678 5676 5674 5673 5671 5668 5666 5665 5663 5661